timestamp,wind_dir_avg,wind_spd_avg,wind_spd_max_dir,wind_spd_gust,battery_voltage,lat,long
2019-12-17 00:04:01+00:00,285.0,12.38,286.0,15.05,12.41,47.59359,-54.27349
2019-12-17 00:14:01+00:00,289.0,17.84,289.0,23.62,12.41,47.59359,-54.27349
2019-12-17 00:24:01+00:00,288.0,15.9,295.0,17.82,12.41,47.59359,-54.27349
2019-12-17 00:34:01+00:00,280.0,14.92,287.0,16.86,12.41,47.59359,-54.27349
2019-12-17 00:44:01+00:00,297.0,12.96,308.0,16.27,12.41,47.59359,-54.27349
2019-12-17 00:54:01+00:00,283.0,12.21,293.0,15.26,12.41,47.59359,-54.27349
2019-12-17 01:04:01+00:00,294.0,14.74,291.0,17.58,12.41,47.59359,-54.27349
2019-12-17 01:14:01+00:00,297.0,19.37,297.0,22.92,12.41,47.59359,-54.27349
2019-12-17 01:24:01+00:00,298.0,16.57,299.0,19.13,12.41,47.59359,-54.27349
2019-12-17 01:34:01+00:00,294.0,15.98,300.0,18.76,12.41,47.59359,-54.27349
2019-12-17 01:44:01+00:00,284.0,12.44,281.0,15.61,12.41,47.59359,-54.27349
2019-12-17 01:54:01+00:00,290.0,16.87,291.0,20.5,12.41,47.59359,-54.27349
2019-12-17 02:04:01+00:00,295.0,14.86,294.0,18.64,12.41,47.59359,-54.27349
2019-12-17 02:14:01+00:00,297.0,13.08,298.0,15.96,12.33,47.59359,-54.27349
2019-12-17 02:24:01+00:00,300.0,11.88,275.0,17.4,12.33,47.59359,-54.27349
2019-12-17 02:34:01+00:00,294.0,15.7,295.0,18.4,12.33,47.59359,-54.27349
2019-12-17 02:44:01+00:00,292.0,12.74,284.0,16.61,12.33,47.59359,-54.27349
2019-12-17 02:54:01+00:00,301.0,16.6,300.0,18.54,12.33,47.59359,-54.27349
2019-12-17 03:04:01+00:00,281.0,12.62,284.0,15.11,12.33,47.59359,-54.27349
2019-12-17 03:14:01+00:00,298.0,18.96,288.0,21.8,12.33,47.59359,-54.27349
2019-12-17 03:24:01+00:00,296.0,18.32,296.0,24.75,12.33,47.59359,-54.27349
2019-12-17 03:34:01+00:00,298.0,17.49,292.0,19.97,12.33,47.59359,-54.27349
2019-12-17 03:44:01+00:00,296.0,14.71,302.0,17.04,12.33,47.59359,-54.27349
2019-12-17 03:54:01+00:00,304.0,18.12,312.0,21.92,12.33,47.59359,-54.27349
2019-12-17 04:04:01+00:00,299.0,15.74,294.0,19.4,12.33,47.59359,-54.27349
2019-12-17 04:14:01+00:00,295.0,16.32,288.0,22.84,12.33,47.59359,-54.27349
2019-12-17 04:24:01+00:00,299.0,14.74,303.0,17.28,12.33,47.59359,-54.27349
2019-12-17 04:34:01+00:00,296.0,18.05,299.0,20.96,12.33,47.59359,-54.27349
2019-12-17 04:44:01+00:00,296.0,16.58,295.0,18.74,12.33,47.59359,-54.27349
2019-12-17 04:54:01+00:00,298.0,15.87,303.0,18.66,12.33,47.59359,-54.27349
2019-12-17 05:04:01+00:00,298.0,16.4,301.0,22.34,12.33,47.59359,-54.27349
2019-12-17 05:14:01+00:00,299.0,16.13,300.0,19.77,12.33,47.59359,-54.27349
2019-12-17 05:24:01+00:00,306.0,16.81,309.0,20.85,12.33,47.59359,-54.27349
2019-12-17 05:34:01+00:00,294.0,16.98,284.0,20.22,12.33,47.59359,-54.27349
2019-12-17 05:44:01+00:00,297.0,14.62,288.0,18.72,12.33,47.59359,-54.27349
2019-12-17 05:54:01+00:00,297.0,16.11,290.0,18.35,12.33,47.59359,-54.27349
2019-12-17 06:04:01+00:00,294.0,14.61,287.0,18.6,12.33,47.59359,-54.27349
2019-12-17 06:14:01+00:00,294.0,17.4,289.0,22.21,12.33,47.59359,-54.27349
2019-12-17 06:24:01+00:00,301.0,17.92,299.0,22.87,12.33,47.59359,-54.27349
2019-12-17 06:34:01+00:00,292.0,17.6,291.0,21.47,12.33,47.59359,-54.27349
2019-12-17 06:44:01+00:00,302.0,15.39,303.0,19.05,12.33,47.59359,-54.27349
2019-12-17 06:54:01+00:00,290.0,17.86,291.0,22.65,12.33,47.59359,-54.27349
2019-12-17 07:04:01+00:00,305.0,15.93,307.0,19.26,12.33,47.59359,-54.27349
2019-12-17 07:14:01+00:00,298.0,15.41,295.0,18.03,12.33,47.59359,-54.27349
2019-12-17 07:24:01+00:00,305.0,15.49,295.0,17.68,12.33,47.59359,-54.27349
2019-12-17 07:34:01+00:00,289.0,12.8,289.0,15.34,12.33,47.59359,-54.27349
2019-12-17 07:44:01+00:00,288.0,14.71,294.0,18.88,12.33,47.59359,-54.27349
2019-12-17 07:54:01+00:00,297.0,12.35,295.0,15.91,12.33,47.59359,-54.27349
2019-12-17 08:04:01+00:00,301.0,12.56,307.0,16.59,12.33,47.59359,-54.27349
2019-12-17 08:14:01+00:00,302.0,12.91,307.0,16.68,12.25,47.59359,-54.27349
2019-12-17 08:24:01+00:00,301.0,16.07,305.0,18.95,12.25,47.59359,-54.27349
2019-12-17 08:34:01+00:00,303.0,13.93,309.0,17.08,12.25,47.59359,-54.27349
2019-12-17 08:44:01+00:00,291.0,16.58,294.0,19.27,12.25,47.59359,-54.27349
2019-12-17 08:54:01+00:00,289.0,13.75,279.0,16.93,12.25,47.59359,-54.27349
2019-12-17 09:04:01+00:00,302.0,11.73,298.0,15.64,12.25,47.59359,-54.27349
2019-12-17 09:14:01+00:00,291.0,14.23,294.0,16.86,12.33,47.59359,-54.27349
2019-12-17 09:24:01+00:00,299.0,16.56,301.0,19.0,12.33,47.59359,-54.27349
2019-12-17 09:34:01+00:00,303.0,13.05,308.0,15.69,12.33,47.59359,-54.27349
2019-12-17 09:44:01+00:00,303.0,14.24,302.0,16.72,12.33,47.59359,-54.27349
2019-12-17 09:54:01+00:00,302.0,14.4,304.0,18.21,12.33,47.59359,-54.27349
2019-12-17 10:04:01+00:00,297.0,13.85,291.0,17.49,12.33,47.59359,-54.27349
2019-12-17 10:14:01+00:00,300.0,14.64,303.0,18.42,12.33,47.59359,-54.27349
2019-12-17 10:24:01+00:00,299.0,17.06,299.0,19.71,12.33,47.59359,-54.27349
2019-12-17 10:34:01+00:00,299.0,17.6,304.0,20.76,12.33,47.59359,-54.27349
2019-12-17 10:44:01+00:00,298.0,16.12,297.0,20.43,12.33,47.59359,-54.27349
2019-12-17 10:54:01+00:00,299.0,13.61,307.0,16.1,12.33,47.59359,-54.27349
2019-12-17 11:04:01+00:00,295.0,16.67,305.0,22.26,12.33,47.59359,-54.27349
2019-12-17 11:14:01+00:00,287.0,15.82,290.0,19.83,12.25,47.59359,-54.27349
2019-12-17 11:24:01+00:00,291.0,14.92,288.0,18.56,12.25,47.59359,-54.27349
2019-12-17 11:34:01+00:00,285.0,13.13,276.0,15.63,12.25,47.59359,-54.27349
2019-12-17 11:44:01+00:00,293.0,16.88,295.0,19.93,12.25,47.59359,-54.27349
2019-12-17 11:54:01+00:00,286.0,16.76,286.0,19.92,12.25,47.59359,-54.27349
2019-12-17 12:04:01+00:00,286.0,14.36,278.0,19.16,12.25,47.59359,-54.27349
2019-12-17 12:14:01+00:00,288.0,15.89,283.0,19.9,12.33,47.59359,-54.27349
2019-12-17 12:24:01+00:00,292.0,14.53,304.0,17.25,12.33,47.59359,-54.27349
2019-12-17 12:34:01+00:00,294.0,16.45,300.0,19.94,12.33,47.59359,-54.27349
2019-12-17 12:44:01+00:00,289.0,17.28,290.0,19.99,12.33,47.59359,-54.27349
2019-12-17 12:54:01+00:00,294.0,16.02,295.0,18.52,12.33,47.59359,-54.27349
2019-12-17 13:04:01+00:00,284.0,17.51,283.0,22.28,12.33,47.59359,-54.27349
2019-12-17 13:14:01+00:00,295.0,19.39,297.0,24.09,12.65,47.59359,-54.27349
2019-12-17 13:24:01+00:00,303.0,18.59,321.0,26.01,12.65,47.59359,-54.27349
2019-12-17 13:34:01+00:00,298.0,14.77,297.0,16.98,12.65,47.59359,-54.27349
2019-12-17 13:44:01+00:00,286.0,20.32,286.0,24.09,12.65,47.59359,-54.27349
2019-12-17 13:54:01+00:00,293.0,19.11,294.0,23.46,12.65,47.59359,-54.27349
2019-12-17 14:04:01+00:00,292.0,16.87,298.0,21.0,12.65,47.59359,-54.27349
2019-12-17 15:14:01+00:00,297.0,17.1,302.0,20.52,13.53,47.59359,-54.27349
2019-12-17 15:24:01+00:00,308.0,17.82,305.0,20.02,13.53,47.59359,-54.27349
2019-12-17 15:34:01+00:00,306.0,15.41,309.0,17.75,13.53,47.59359,-54.27349
2019-12-17 15:44:01+00:00,291.0,17.14,304.0,19.56,13.53,47.59359,-54.27349
2019-12-17 15:54:01+00:00,295.0,15.14,294.0,18.51,13.53,47.59359,-54.27349
2019-12-17 16:04:01+00:00,291.0,18.02,294.0,21.47,13.53,47.59359,-54.27349
2019-12-17 16:14:01+00:00,298.0,15.27,292.0,18.52,13.68,47.59359,-54.27349
2019-12-17 16:24:01+00:00,299.0,15.65,302.0,19.28,13.68,47.59359,-54.27349
2019-12-17 16:34:01+00:00,289.0,15.36,279.0,19.32,13.68,47.59359,-54.27349
2019-12-17 16:44:01+00:00,298.0,16.39,296.0,19.45,13.68,47.59359,-54.27349
2019-12-17 16:54:01+00:00,297.0,15.36,302.0,18.0,13.68,47.59359,-54.27349
2019-12-17 17:04:01+00:00,299.0,16.59,301.0,20.2,13.68,47.59359,-54.27349
2019-12-17 17:14:01+00:00,292.0,16.34,281.0,22.57,13.53,47.59359,-54.27349
2019-12-17 17:24:01+00:00,295.0,14.58,293.0,16.92,13.53,47.59359,-54.27349
2019-12-17 17:34:01+00:00,291.0,15.93,288.0,22.42,13.53,47.59359,-54.27349
2019-12-17 17:44:01+00:00,289.0,14.8,288.0,17.94,13.53,47.59359,-54.27349
2019-12-17 17:54:01+00:00,296.0,16.61,297.0,20.73,13.53,47.59359,-54.27349
2019-12-17 18:04:01+00:00,295.0,14.55,295.0,16.56,13.53,47.59359,-54.27349
2019-12-17 18:14:01+00:00,295.0,17.35,304.0,20.13,14.24,47.59359,-54.27349
2019-12-17 18:24:01+00:00,292.0,16.54,290.0,19.73,14.24,47.59359,-54.27349
2019-12-17 18:34:01+00:00,297.0,15.43,291.0,17.95,14.24,47.59359,-54.27349
2019-12-17 18:44:01+00:00,300.0,15.64,291.0,19.19,14.24,47.59359,-54.27349
2019-12-17 18:54:01+00:00,302.0,13.07,302.0,15.62,14.24,47.59359,-54.27349
2019-12-17 19:04:01+00:00,296.0,17.7,301.0,22.37,14.24,47.59359,-54.27349
2019-12-17 19:14:01+00:00,296.0,16.08,295.0,18.19,13.44,47.59359,-54.27349
2019-12-17 19:24:01+00:00,305.0,15.89,303.0,20.96,13.44,47.59359,-54.27349
2019-12-17 19:34:01+00:00,311.0,16.44,307.0,18.49,13.44,47.59359,-54.27349
2019-12-17 19:44:01+00:00,299.0,15.74,293.0,20.08,13.44,47.59359,-54.27349
2019-12-17 19:54:01+00:00,313.0,17.45,309.0,23.1,13.44,47.59359,-54.27349
2019-12-17 20:04:01+00:00,318.0,13.55,316.0,14.96,13.44,47.59359,-54.27349
2019-12-17 20:14:01+00:00,308.0,11.7,309.0,14.41,12.81,47.59359,-54.27349
2019-12-17 20:24:01+00:00,318.0,13.64,329.0,16.68,12.81,47.59359,-54.27349
2019-12-17 20:34:01+00:00,308.0,14.52,312.0,20.37,12.81,47.59359,-54.27349
2019-12-17 20:44:01+00:00,310.0,16.38,307.0,20.98,12.81,47.59359,-54.27349
2019-12-17 20:54:01+00:00,302.0,14.08,298.0,17.48,12.81,47.59359,-54.27349
2019-12-17 21:04:01+00:00,305.0,11.76,307.0,15.12,12.81,47.59359,-54.27349
2019-12-17 21:14:01+00:00,301.0,10.72,300.0,12.93,12.65,47.59359,-54.27349
2019-12-17 21:24:01+00:00,297.0,12.96,299.0,15.82,12.65,47.59359,-54.27349
2019-12-17 21:34:01+00:00,305.0,14.38,310.0,17.36,12.65,47.59359,-54.27349
2019-12-17 21:44:01+00:00,294.0,10.64,290.0,13.3,12.65,47.59359,-54.27349
2019-12-17 21:54:01+00:00,300.0,9.45,303.0,11.55,12.65,47.59359,-54.27349
2019-12-17 22:04:01+00:00,306.0,11.22,305.0,14.23,12.65,47.59359,-54.27349
2019-12-17 22:14:01+00:00,294.0,14.02,288.0,16.69,12.65,47.59359,-54.27349
2019-12-17 22:24:01+00:00,301.0,8.4,305.0,9.92,12.65,47.59359,-54.27349
2019-12-17 22:34:01+00:00,306.0,11.48,305.0,13.81,12.65,47.59359,-54.27349
2019-12-17 22:44:01+00:00,307.0,9.18,310.0,10.7,12.65,47.59359,-54.27349
2019-12-17 22:54:01+00:00,313.0,12.87,314.0,15.2,12.65,47.59359,-54.27349
2019-12-17 23:04:01+00:00,302.0,7.8,301.0,9.8,12.65,47.59359,-54.27349
2019-12-17 23:14:01+00:00,299.0,8.6,296.0,10.87,12.65,47.59359,-54.27349
2019-12-17 23:24:01+00:00,298.0,4.72,300.0,6.02,12.65,47.59359,-54.27349
2019-12-17 23:34:01+00:00,302.0,7.79,306.0,10.9,12.65,47.59359,-54.27349
2019-12-17 23:44:01+00:00,307.0,7.12,301.0,9.27,12.65,47.59359,-54.27349
2019-12-17 23:54:01+00:00,327.0,3.71,334.0,4.7,12.65,47.59359,-54.27349
